Flag for Germany Weather past 2 weeks in Meiningen, Thuringia, Germany

Now
44 °F

Overcast.


Feels Like: 39 °F
Forecast: 40 / 54 °F
Wind: 8 mph from Northwest

Location: Meiningen

Current Time: Oct 23, 2014 at 4:26:17 AM

Latest Report: Oct 23, 2014 at 4:00 AM


Visibility: 13 mi

Pressure: 30.11 "Hg

Humidity: 80%

Dew point: 38 °F

Location of MeiningenLocation

Historic Weather in Meiningen — Graph

°F

Meiningen temperature yesterday

Maximum temperature yesterday: 44 °F (at 8:00 PM)
Minimum temperature yesterday: 39 °F (at 6:00 AM)
Average temperature yesterday: 42 °F

Past Weeks' High & Low Weather Summary

 TemperatureHumidityPressure
High66 °F (Oct 9, 3:00 PM)100% (Oct 12, 6:00 AM)30.25 "Hg (Oct 12, 6:00 AM)
Low39 °F (Oct 22, 6:00 AM)52% (Oct 15, 3:00 PM)29.55 "Hg (Oct 21, 8:00 PM)
Average54 °F89%29.91 "Hg
* Reported Oct 8 3:00 AM — Oct 23 3:00 AM, Meiningen, Weather by CustomWeather, © 2014

Note: Actual official high and low records may vary slightly from our data, if they occured in-between our weather recording intervals... More about our weather records

Advertising

Meiningen weather history for previous 24 hours

 ConditionsComfort  
Time TempWeatherWind HumidityBarometerVisibility
3:00 AM
Oct 23
44 °FPassing clouds.8 mph83%30.09 "Hg11 mi
2:00 AM44 °FPassing clouds.9 mph85%30.06 "Hg9 mi
1:00 AM44 °FPassing clouds.9 mph86%30.05 "Hg7 mi
12:00 AM44 °FLow clouds.9 mph88%30.03 "Hg6 mi
10:00 PM
Oct 22
44 °FPassing clouds.12 mph88%29.98 "Hg6 mi
9:00 PM44 °FPassing clouds.9 mph88%29.95 "Hg6 mi
8:00 PM44 °FPassing clouds.9 mph90%29.92 "Hg5 mi
7:00 PM44 °FLight freezing rain. Low clouds.9 mph93%29.90 "Hg2 mi
6:00 PM43 °FLight rain. Low clouds.7 mph93%29.89 "Hg4 mi
4:00 PM41 °FRain. Low clouds.6 mph91%29.88 "Hg6 mi
3:00 PM41 °FRain. Low clouds.7 mph89%29.87 "Hg7 mi
2:00 PM42 °FLight rain. Overcast.7 mph86%29.88 "Hg11 mi
1:00 PM42 °FRain. Overcast.8 mph83%29.89 "Hg11 mi
12:00 PM42 °FRain. Low clouds.7 mph85%29.89 "Hg11 mi
10:00 AM42 °FRain. Overcast.7 mph83%29.88 "Hg8 mi
9:00 AM42 °FLight rain. Overcast.8 mph80%29.86 "Hg14 mi
8:00 AM42 °FLight rain. Overcast.7 mph85%29.83 "Hg11 mi
7:00 AM40 °FLight rain. Overcast.5 mph88%29.81 "Hg7 mi
6:00 AM39 °FRain. Overcast.7 mph88%29.80 "Hg5 mi
4:00 AM42 °FPassing clouds.7 mph80%29.81 "Hg31 mi
Weather by CustomWeather, © 2014

See weather overviewHow to use our weather pages